ITY964 LIME-LSZH

Flight info

Callsign ITY964
Flight time 0h 38m
Altitude 30000
Route PEPAG DCT CANNE Z651 KELIP
Aircraft C25B/M-SDE2E3FGHRWXY/LB1

Departure

Time 2026-05-07 11:54
Airport Il Caravaggio International Airport (LIME)

Arrival

Time 2026-05-07 12:32
Airport Zürich Airport (LSZH)
Time Latitude Longitude Altitude Speed Heading
2026-05-07 11:42 45.66606 9.70282 777 ft 0 kts 194°
2026-05-07 11:44 45.66600 9.70290 776 ft 1 kts 74°
2026-05-07 11:44 45.66628 9.70296 776 ft 6 kts
2026-05-07 11:44 45.66639 9.70297 776 ft 0 kts
2026-05-07 11:44 45.66668 9.70306 776 ft 7 kts 31°
2026-05-07 11:45 45.66668 9.70405 775 ft 15 kts 104°
2026-05-07 11:45 45.66638 9.70568 774 ft 18 kts 105°
2026-05-07 11:45 45.66605 9.70748 772 ft 20 kts 103°
2026-05-07 11:45 45.66568 9.70948 770 ft 21 kts 104°
2026-05-07 11:46 45.66522 9.71153 769 ft 23 kts 115°
2026-05-07 11:46 45.66474 9.71370 767 ft 24 kts 105°
2026-05-07 11:46 45.66439 9.71603 765 ft 25 kts 87°
2026-05-07 11:46 45.66469 9.71780 763 ft 4 kts 75°
2026-05-07 11:47 45.66470 9.71783 763 ft 0 kts 75°
2026-05-07 11:51 45.66475 9.71812 763 ft 7 kts 72°
2026-05-07 11:51 45.66484 9.71848 762 ft 0 kts 71°
2026-05-07 11:53 45.66507 9.71906 758 ft 10 kts 33°
2026-05-07 11:53 45.66558 9.71893 762 ft 0 kts 294°
2026-05-07 11:53 45.66602 9.71678 764 ft 60 kts 287°
2026-05-07 11:53 45.66781 9.70758 795 ft 126 kts 285°
2026-05-07 11:54 45.67114 9.69507 1344 ft 142 kts 288°
2026-05-07 11:54 45.67120 9.68193 1994 ft 129 kts 258°
2026-05-07 11:54 45.66921 9.66724 2782 ft 172 kts 244°
2026-05-07 11:54 45.66204 9.65367 3840 ft 174 kts 227°
2026-05-07 11:55 45.65344 9.64151 5032 ft 174 kts 222°
2026-05-07 11:55 45.64485 9.62950 6160 ft 173 kts 226°
2026-05-07 11:55 45.63620 9.61700 7043 ft 186 kts 225°
2026-05-07 11:55 45.62636 9.60300 7668 ft 213 kts 225°
2026-05-07 11:56 45.61529 9.58716 8460 ft 236 kts 225°
2026-05-07 11:56 45.60360 9.57042 9540 ft 238 kts 225°
2026-05-07 11:56 45.59162 9.55373 10483 ft 246 kts 221°
2026-05-07 11:56 45.57523 9.54388 10887 ft 276 kts 186°
2026-05-07 11:57 45.55585 9.54947 11181 ft 308 kts 156°
2026-05-07 11:57 45.53981 9.57061 11747 ft 324 kts 123°
2026-05-07 11:57 45.53318 9.60130 12543 ft 331 kts 94°
2026-05-07 11:57 45.53763 9.63343 13282 ft 336 kts 64°
2026-05-07 11:58 45.55181 9.65856 13996 ft 338 kts 36°
2026-05-07 11:58 45.57304 9.67226 14563 ft 337 kts 12°
2026-05-07 11:58 45.59583 9.68086 15200 ft 340 kts 11°
2026-05-07 11:58 45.61930 9.68505 15865 ft 341 kts
2026-05-07 11:59 45.64299 9.68451 16532 ft 341 kts 350°
2026-05-07 11:59 45.66592 9.67774 17209 ft 342 kts 341°
2026-05-07 11:59 45.68769 9.66434 17872 ft 342 kts 329°
2026-05-07 11:59 45.70716 9.64503 18516 ft 341 kts 316°
2026-05-07 12:00 45.72329 9.62029 19132 ft 340 kts 305°
2026-05-07 12:00 45.73608 9.59175 19715 ft 342 kts 300°
2026-05-07 12:00 45.74930 9.56319 20319 ft 345 kts 303°
2026-05-07 12:00 45.76322 9.53500 20936 ft 348 kts 303°
2026-05-07 12:01 45.77710 9.50646 21553 ft 351 kts 303°
2026-05-07 12:01 45.78987 9.47960 22126 ft 354 kts 302°
2026-05-07 12:01 45.80362 9.45066 22717 ft 357 kts 303°
2026-05-07 12:01 45.81754 9.42164 23318 ft 360 kts 303°
2026-05-07 12:02 45.83177 9.39192 23851 ft 363 kts 303°
2026-05-07 12:02 45.84605 9.36196 24359 ft 365 kts 303°
2026-05-07 12:02 45.86042 9.33181 24844 ft 367 kts 302°
2026-05-07 12:02 45.87483 9.30152 25337 ft 369 kts 302°
2026-05-07 12:03 45.88938 9.27098 25774 ft 372 kts 302°
2026-05-07 12:03 45.90227 9.24384 26191 ft 374 kts 302°
2026-05-07 12:03 45.91693 9.21296 26674 ft 375 kts 302°
2026-05-07 12:03 45.93165 9.18192 27096 ft 377 kts 302°
2026-05-07 12:04 45.94620 9.15112 27538 ft 379 kts 302°
2026-05-07 12:04 45.96112 9.11970 27912 ft 381 kts 302°
2026-05-07 12:04 45.97645 9.08853 28287 ft 384 kts 307°
2026-05-07 12:04 45.99532 9.06092 28666 ft 389 kts 315°
2026-05-07 12:05 46.01697 9.03721 29021 ft 394 kts 322°
2026-05-07 12:05 46.03929 9.01422 29342 ft 396 kts 321°
2026-05-07 12:05 46.06003 8.99227 29679 ft 398 kts 321°
2026-05-07 12:05 46.08248 8.96883 29916 ft 397 kts 321°
2026-05-07 12:06 46.10446 8.94609 29869 ft 392 kts 322°
2026-05-07 12:06 46.14878 8.90191 29874 ft 386 kts 329°
2026-05-07 12:07 46.20039 8.87651 29886 ft 402 kts 348°
2026-05-07 12:07 46.22812 8.87203 30173 ft 400 kts 351°
2026-05-07 12:07 46.25580 8.86777 30372 ft 399 kts 351°
2026-05-07 12:07 46.28338 8.86366 30616 ft 398 kts 351°
2026-05-07 12:08 46.31098 8.85951 30798 ft 398 kts 351°
2026-05-07 12:08 46.33816 8.85546 30956 ft 399 kts 351°
2026-05-07 12:08 46.36573 8.85133 31188 ft 397 kts 351°
2026-05-07 12:08 46.39322 8.84713 31358 ft 398 kts 351°
2026-05-07 12:09 46.42079 8.84292 31497 ft 399 kts 351°
2026-05-07 12:09 46.44836 8.83871 31739 ft 397 kts 351°
2026-05-07 12:09 46.47583 8.83451 31969 ft 397 kts 351°
2026-05-07 12:09 46.50327 8.83026 32177 ft 397 kts 350°
2026-05-07 12:10 46.53068 8.82601 32376 ft 396 kts 350°
2026-05-07 12:10 46.55813 8.82176 32581 ft 396 kts 350°
2026-05-07 12:10 46.58537 8.81759 33130 ft 386 kts 350°
2026-05-07 12:10 46.61110 8.81370 33970 ft 372 kts 349°
2026-05-07 12:11 46.63706 8.80977 34002 ft 376 kts 349°
2026-05-07 12:11 46.68924 8.80179 34010 ft 377 kts 349°
2026-05-07 12:12 46.74132 8.79371 34016 ft 376 kts 349°
2026-05-07 12:12 46.79333 8.78552 34019 ft 376 kts 349°
2026-05-07 12:13 46.84533 8.77721 34025 ft 377 kts 349°
2026-05-07 12:13 46.89365 8.76933 34022 ft 377 kts 349°
2026-05-07 12:14 46.94576 8.76069 34024 ft 376 kts 349°
2026-05-07 12:14 46.99670 8.75211 34035 ft 375 kts 349°
2026-05-07 12:14 47.02269 8.74763 33733 ft 381 kts 349°
2026-05-07 12:15 47.04824 8.74315 32899 ft 401 kts 351°
2026-05-07 12:15 47.07604 8.73835 32628 ft 400 kts 350°
2026-05-07 12:15 47.10298 8.73353 32206 ft 385 kts 350°
2026-05-07 12:15 47.12995 8.72873 31301 ft 389 kts 351°
2026-05-07 12:16 47.15611 8.72411 30822 ft 379 kts 351°
2026-05-07 12:16 47.18199 8.71939 30331 ft 371 kts 352°
2026-05-07 12:16 47.20733 8.71465 29792 ft 364 kts 352°
2026-05-07 12:16 47.23223 8.70989 29210 ft 358 kts 351°
2026-05-07 12:17 47.25674 8.70509 28654 ft 353 kts 351°
2026-05-07 12:17 47.28098 8.70023 28101 ft 350 kts 351°
2026-05-07 12:17 47.30501 8.69530 27554 ft 347 kts 350°
2026-05-07 12:17 47.32879 8.69030 27020 ft 347 kts 350°
2026-05-07 12:18 47.35357 8.68516 26501 ft 373 kts 350°
2026-05-07 12:18 47.37961 8.67964 26016 ft 393 kts 350°
2026-05-07 12:18 47.40721 8.67357 25530 ft 408 kts 350°
2026-05-07 12:18 47.43472 8.66724 25049 ft 392 kts 349°
2026-05-07 12:19 47.46111 8.66111 24574 ft 377 kts 349°
2026-05-07 12:19 47.48659 8.65511 24099 ft 366 kts 349°
2026-05-07 12:19 47.51145 8.64918 23619 ft 357 kts 348°
2026-05-07 12:19 47.53567 8.64326 23059 ft 349 kts 348°
2026-05-07 12:20 47.55943 8.63738 22506 ft 343 kts 348°
2026-05-07 12:20 47.58278 8.63144 21961 ft 338 kts 348°
2026-05-07 12:20 47.60580 8.62547 21425 ft 333 kts 348°
2026-05-07 12:20 47.62814 8.61948 20917 ft 329 kts 347°
2026-05-07 12:21 47.64988 8.61048 20385 ft 321 kts 331°
2026-05-07 12:21 47.66645 8.58927 19866 ft 315 kts 305°
2026-05-07 12:21 47.67479 8.55974 19361 ft 312 kts 279°
2026-05-07 12:21 47.67479 8.52773 18874 ft 311 kts 265°
2026-05-07 12:22 47.66912 8.49717 18388 ft 309 kts 243°
2026-05-07 12:22 47.65562 8.47237 17848 ft 310 kts 227°
2026-05-07 12:22 47.64011 8.45022 17336 ft 309 kts 224°
2026-05-07 12:22 47.62442 8.42916 16968 ft 302 kts 223°
2026-05-07 12:23 47.60874 8.40865 16532 ft 299 kts 223°
2026-05-07 12:23 47.59336 8.38874 16138 ft 295 kts 223°
2026-05-07 12:23 47.57874 8.36779 15732 ft 291 kts 236°
2026-05-07 12:23 47.57069 8.34070 15334 ft 287 kts 252°
2026-05-07 12:24 47.56478 8.31268 14964 ft 284 kts 253°
2026-05-07 12:24 47.55948 8.28464 14605 ft 281 kts 255°
2026-05-07 12:24 47.55464 8.25834 14281 ft 279 kts 255°
2026-05-07 12:24 47.54965 8.23064 13927 ft 277 kts 255°
2026-05-07 12:25 47.54471 8.20319 13543 ft 276 kts 256°
2026-05-07 12:25 47.54433 8.17536 13165 ft 278 kts 283°
2026-05-07 12:25 47.55378 8.15045 12766 ft 283 kts 311°
2026-05-07 12:25 47.57038 8.13481 12360 ft 289 kts 339°
2026-05-07 12:26 47.59045 8.13276 12039 ft 293 kts
2026-05-07 12:26 47.60847 8.14519 12029 ft 285 kts 37°
2026-05-07 12:26 47.62080 8.16744 12036 ft 276 kts 59°
2026-05-07 12:26 47.62705 8.19368 12036 ft 267 kts 77°
2026-05-07 12:27 47.63074 8.22021 12034 ft 259 kts 80°
2026-05-07 12:27 47.63381 8.24621 12034 ft 252 kts 81°
2026-05-07 12:27 47.63652 8.27134 12028 ft 249 kts 85°
2026-05-07 12:27 47.63356 8.29594 12034 ft 242 kts 114°
2026-05-07 12:28 47.62540 8.31725 12036 ft 236 kts 131°
2026-05-07 12:28 47.61509 8.33594 12039 ft 233 kts 130°
2026-05-07 12:28 47.60711 8.35677 12034 ft 233 kts 116°
2026-05-07 12:28 47.59807 8.37598 12041 ft 225 kts 140°
2026-05-07 12:29 47.58661 8.39233 11786 ft 236 kts 137°
2026-05-07 12:29 47.57471 8.40989 11316 ft 246 kts 139°
2026-05-07 12:29 47.56214 8.42693 10556 ft 241 kts 138°
2026-05-07 12:29 47.55057 8.44377 7803 ft 201 kts 136°
2026-05-07 12:30 47.54276 8.45524 5388 ft 144 kts 139°
2026-05-07 12:30 47.53592 8.46412 3855 ft 126 kts 144°
2026-05-07 12:30 47.52949 8.47149 3032 ft 117 kts 143°
2026-05-07 12:30 47.52338 8.47899 2433 ft 123 kts 145°
2026-05-07 12:31 47.51620 8.48817 2271 ft 144 kts 138°
2026-05-07 12:31 47.50882 8.49863 2159 ft 150 kts 136°
2026-05-07 12:31 47.50116 8.50931 2014 ft 151 kts 138°
2026-05-07 12:31 47.49348 8.51999 1776 ft 154 kts 133°
2026-05-07 12:32 47.48658 8.52981 1556 ft 117 kts 140°
2026-05-07 12:32 47.48120 8.53684 1391 ft 62 kts 140°
2026-05-07 12:32 47.48052 8.53765 1398 ft 0 kts 141°
2026-05-07 12:32 47.47965 8.53905 1392 ft 25 kts 131°
2026-05-07 12:33 47.47692 8.54307 1388 ft 35 kts 137°
2026-05-07 12:33 47.47528 8.54535 1391 ft 30 kts 137°
2026-05-07 12:33 47.47370 8.54754 1391 ft 34 kts 137°
2026-05-07 12:34 47.47184 8.55001 1388 ft 38 kts 137°
2026-05-07 12:34 47.46981 8.55281 1390 ft 41 kts 137°
2026-05-07 12:34 47.46765 8.55568 1393 ft 41 kts 146°
2026-05-07 12:34 47.46570 8.55688 1394 ft 28 kts 168°
2026-05-07 12:35 47.46386 8.55758 1391 ft 28 kts 151°
2026-05-07 12:35 47.46284 8.55888 1398 ft 15 kts 141°
2026-05-07 12:35 47.46206 8.55997 1398 ft 16 kts 139°
2026-05-07 12:35 47.46151 8.56063 1400 ft 0 kts 136°
2026-05-07 12:36 47.46139 8.56081 1396 ft 8 kts 136°
2026-05-07 12:36 47.46083 8.56164 1396 ft 14 kts 134°
2026-05-07 12:36 47.46008 8.56267 1402 ft 15 kts 137°
2026-05-07 12:36 47.45924 8.56312 1398 ft 12 kts 190°
2026-05-07 12:37 47.45833 8.56288 1396 ft 15 kts 187°
2026-05-07 12:37 47.45722 8.56263 1393 ft 18 kts 190°
2026-05-07 12:37 47.45639 8.56258 1394 ft 10 kts 155°
2026-05-07 12:37 47.45604 8.56339 1392 ft 11 kts 99°
2026-05-07 12:38 47.45594 8.56478 1392 ft 14 kts 95°
2026-05-07 12:38 47.45583 8.56629 1392 ft 16 kts 96°
2026-05-07 12:38 47.45572 8.56795 1392 ft 17 kts 96°
2026-05-07 12:38 47.45563 8.56927 1392 ft 9 kts 96°
2026-05-07 12:39 47.45538 8.57000 1396 ft 8 kts 155°
2026-05-07 12:39 47.45506 8.57074 1392 ft 10 kts 97°
2026-05-07 12:39 47.45491 8.57179 1392 ft 11 kts 135°
2026-05-07 12:39 47.45421 8.57239 1392 ft 12 kts 172°
2026-05-07 12:40 47.45377 8.57263 1394 ft 4 kts 109°
2026-05-07 12:40 47.45379 8.57294 1392 ft 3 kts 20°
2026-05-07 12:40 47.45398 8.57296 1395 ft 3 kts
2026-05-07 12:40 47.45402 8.57296 1394 ft 0 kts